Location: Fort Wayne
(41.1310°N, 85.1290°W)
Time: 05:12:14
(UTC-04:00)

BREEZE-M DEB (TANK) - Visible Passes

Search period start: 26 March 2017 00:00
Search period end: 05 April 2017 00:00
Orbit: 273 x 13282 km, 49.6° (Epoch: 24 March)

Date Brightness Start Highest point End Pass type
(mag) Time Alt. Az. Time Alt. Az. Time Alt. Az.
26 Mar 8.9 00:54:41 10° NW 01:54:48 35° W 02:51:57 21° SW visible
26 Mar 8.7 21:25:59 10° WNW 22:24:57 80° SW 23:44:50 34° SSE visible
27 Mar 9.1 02:10:59 10° NW 02:54:53 20° W 03:50:12 10° WSW visible
27 Mar 8.2 18:04:54 10° W 18:29:37 74° N 20:30:01 10° ESE visible
27 Mar 8.7 22:33:13 10° NW 23:37:27 63° WSW 00:48:22 32° S visible
28 Mar 8.6 19:10:29 10° WNW 19:46:23 79° NNE 21:41:23 15° SE visible
28 Mar 8.8 23:41:40 10° NW 00:44:36 46° W 01:51:54 24° SSW visible
29 Mar 8.7 20:16:28 10° WNW 21:05:07 89° SW 22:44:53 22° SSE visible
30 Mar 9.0 00:52:53 10° NW 01:47:30 30° W 02:55:29 13° SW visible
30 Mar 8.7 21:22:54 10° WNW 22:21:01 74° WSW 23:48:27 25° S visible
31 Mar 9.2 02:13:22 10° WNW 02:46:53 15° W 03:28:23 10° W visible
31 Mar 8.3 18:01:44 10° WNW 18:28:02 75° NNE 20:28:48 10° ESE visible
31 Mar 8.8 22:30:06 10° NW 23:31:47 58° WSW 00:52:03 22° SSW visible
01 Apr 8.6 19:07:13 10° WNW 19:44:43 82° NNE 21:44:15 10° SE visible
01 Apr 8.9 23:38:50 10° NW 00:37:46 41° W 01:55:39 15° SSW visible
02 Apr 8.8 20:13:03 10° WNW 21:02:08 85° SW 22:48:40 15° SSE visible
03 Apr 9.0 00:51:15 10° NW 01:39:51 25° W 02:46:43 10° SW visible
03 Apr 8.7 21:19:24 10° NW 22:16:13 69° WSW 23:52:13 16° S visible
04 Apr 9.4 02:23:14 10° WNW 02:38:32 11° WNW 02:55:36 10° W visible
